Погода в Наго

Япония     26°36′19″N   127°57′08″E
темп.,
°C
ветер,
м/с
пор.,
м/с
влажн.,
%
обл.,
%
осадки,
мм/ч
давл.,
гПа
погр.,
м
2 марта, вт
вт200:00+19юз22890 0.0 1015156
03:00+19з36911 0.1 1014306
06:00+20сз599185 0.3 1015591
09:00+18с8138792 0.9 1017748
12:00+17ссз81386100 0.3 1019825
15:00+17с8127882 0.3 1017996
18:00+16с81278100 0.1 10191047
21:00+16ссв6107899 0.3 10211015
3 марта, ср
ср300:00+15ссв5107472 0.0 1022897
03:00+15св597853 0.1 1021794
06:00+14св6107526 0.1 1022782
09:00+15св576833 0.1 10231086
12:00+17всв576962 0.0 10231173
15:00+17всв787262 0.3 1022998
18:00+16всв687131 0.1 1022869
21:00+16в587337 0.2 1024725
4 марта, чт
чт400:00+16в687754 0.3 1023722
03:00+16в587540 0.3 1022648
06:00+16в57728 0.0 1022607
09:00+17вюв566837 0.0 1023942
12:00+19юв556344 0.0 10221063
15:00+19юв446432 0.0 1020927
18:00+18юв347010 0.0 1019461
21:00+17юв35735 0.0 1021365
5 марта, пт
пт500:00+18ююв347238 0.0 1021346
03:00+17ююв357654 0.3 1019343
06:00+18ю347860 0.0 1019321
09:00+20ю347433 0.0 1020582
12:00+21ю337112 0.0 1021722
15:00+21ююз337333 0.1 1019637
18:00+20ююв237835 0.0 1019322
21:00+19юв228218 0.0 1020216
6 марта, сб
сб600:00+19юв23810 0.0 1020277
03:00+19юв34800 0.0 1019323
06:00+19юв35852 0.0 1019363
09:00+21ююв57804 0.0 1020779
12:00+22ююв567738 0.0 1019731
15:00+22ю457828 0.0 1018677
18:00+21ю35801 0.0 1017501
21:00+20ю36861 0.0 1018361